Home   Weather   48°45'N, 122°28'W   Past weeks
Flag for USA

Past Weather in 48°45'N, 122°28'W, USA — Yesterday and Last 2 Weeks

Now
62 °F

Partly sunny.


Feels Like: 62 °F
Forecast: 54 / 43 °F
Wind: 15 mph from South

Location: Bellingham International Airport

Current Time: Mar 22, 2019 at 6:08:11 pm

Latest Report: Mar 22, 2019 at 4:53 pm


Visibility: 10 mi

Pressure: 29.88 "Hg

Humidity: 43%

Dew Point: 39 °F

Location of 48°45'N, 122°28'WLocation

Past Weather in 48°45'N, 122°28'W — Graph

°F

48°45'N, 122°28'W Temperature Yesterday

Maximum temperature yesterday: 57 °F (at 3:53 pm)
Minimum temperature yesterday: 39 °F (at 6:53 am)
Average temperature yesterday: 49 °F

High & Low Weather Summary for the Past Weeks

 TemperatureHumidityPressure
High72 °F (Mar 19, 3:53 pm)96% (Mar 17, 3:16 am)30.44 "Hg (Mar 17, 3:16 am)
Low25 °F (Mar 10, 5:53 am)26% (Mar 20, 12:53 pm)29.77 "Hg (Mar 12, 4:02 am)
Average43 °F73%30.14 "Hg
* Reported Mar 7 3:53 pm — Mar 22 4:53 pm, 48°45'N, 122°28'W. Weather by CustomWeather, © 2019

Note: Actual official high and low records may vary slightly from our data, if they occured in-between our weather recording intervals... More about our weather records

Advertising

48°45'N, 122°28'W Weather History for the Previous 24 Hours

Scroll right to see more
 ConditionsComfort  
Time TempWeatherWind HumidityBarometerVisibility
4:53 pm
Fri, Mar 22
62 °FPartly sunny.15 mph43%29.88 "Hg10 mi
3:53 pm63 °FPartly sunny.9 mph40%29.88 "Hg10 mi
2:53 pm63 °FPartly sunny.8 mph43%29.88 "Hg10 mi
1:53 pm61 °FPartly sunny.5 mph48%29.88 "Hg10 mi
12:53 pm60 °FScattered clouds.5 mph53%29.89 "Hg10 mi
11:53 am56 °FSunny.7 mph60%29.91 "Hg10 mi
10:53 am54 °FSunny.No wind67%29.93 "Hg10 mi
9:53 am50 °FSunny.No wind77%29.93 "Hg10 mi
8:53 am48 °FScattered clouds.No wind86%29.94 "Hg10 mi
7:53 am44 °FScattered clouds.No wind89%29.96 "Hg10 mi
6:53 am40 °FPassing clouds.No wind93%29.96 "Hg10 mi
5:53 am42 °FClear.No wind85%29.97 "Hg10 mi
4:53 am44 °FClear.No wind89%29.97 "Hg10 mi
3:53 am46 °FClear.No wind83%29.99 "Hg10 mi
3:31 am47 °FPassing clouds.6 mph83%29.98 "Hg10 mi
3:09 am47 °FPassing clouds.3 mph83%29.99 "Hg10 mi
2:53 am47 °FPassing clouds.5 mph83%30.01 "Hg10 mi
1:53 am50 °FOvercast.7 mph80%30.02 "Hg10 mi
1:05 am47 °FPassing clouds.3 mph83%30.00 "Hg10 mi
11:53 pm
Thu, Mar 21
50 °FClear.6 mph77%30.02 "Hg10 mi
10:53 pm52 °FClear.8 mph72%30.02 "Hg10 mi
9:53 pm52 °FClear.9 mph69%30.02 "Hg10 mi
8:53 pm53 °FClear.9 mph69%30.01 "Hg10 mi
7:53 pm53 °FClear.13 mph66%30.02 "Hg10 mi
6:53 pm53 °FSunny.10 mph66%30.02 "Hg10 mi
Weather by CustomWeather, © 2019

See weather overview